TimeEDT,TemperatureF,Dew PointF,Humidity,Sea Level PressureIn,VisibilityMPH,Wind Direction,Wind SpeedMPH,Gust SpeedMPH,PrecipitationIn,Events,Conditions,WindDirDegrees,DateUTC
12:51 AM,32.0,27.0,82,29.94,10.0,West,4.6,-,N/A,,Scattered Clouds,270,2013-03-17 04:51:00
1:51 AM,30.9,25.0,79,29.94,10.0,WNW,4.6,-,N/A,,Clear,300,2013-03-17 05:51:00
2:51 AM,30.0,23.0,75,29.96,10.0,Calm,Calm,-,N/A,,Partly Cloudy,0,2013-03-17 06:51:00
3:06 AM,30.2,23.0,75,29.96,10.0,NNW,5.8,-,N/A,,Mostly Cloudy,340,2013-03-17 07:06:00
3:21 AM,28.4,23.0,80,29.96,10.0,North,6.9,-,N/A,,Scattered Clouds,350,2013-03-17 07:21:00
3:33 AM,30.2,23.0,75,29.97,10.0,North,4.6,-,N/A,,Mostly Cloudy,350,2013-03-17 07:33:00
3:51 AM,30.9,24.1,76,29.99,10.0,NNW,3.5,-,N/A,,Overcast,340,2013-03-17 07:51:00
4:51 AM,30.9,23.0,72,30.00,10.0,North,11.5,-,N/A,,Overcast,350,2013-03-17 08:51:00
5:51 AM,30.0,21.0,69,30.03,10.0,North,8.1,-,N/A,,Overcast,360,2013-03-17 09:51:00
6:48 AM,30.2,21.2,69,30.06,10.0,North,8.1,-,N/A,,Overcast,350,2013-03-17 10:48:00
6:51 AM,30.0,21.0,69,30.07,10.0,North,6.9,-,N/A,,Overcast,350,2013-03-17 10:51:00
7:51 AM,28.9,19.9,69,30.10,10.0,North,8.1,-,N/A,,Overcast,350,2013-03-17 11:51:00
8:51 AM,30.0,19.0,64,30.15,10.0,NNW,5.8,-,N/A,,Clear,330,2013-03-17 12:51:00
9:51 AM,32.0,18.0,56,30.16,10.0,NW,6.9,-,N/A,,Clear,320,2013-03-17 13:51:00
10:51 AM,32.0,19.0,59,30.15,10.0,North,9.2,-,N/A,,Mostly Cloudy,350,2013-03-17 14:51:00
11:51 AM,34.0,19.0,54,30.17,10.0,North,13.8,-,N/A,,Partly Cloudy,350,2013-03-17 15:51:00
12:51 PM,35.1,19.0,52,30.17,10.0,NNW,10.4,-,N/A,,Overcast,330,2013-03-17 16:51:00
1:51 PM,37.0,19.0,48,30.17,10.0,NW,9.2,-,N/A,,Mostly Cloudy,320,2013-03-17 17:51:00
2:51 PM,37.0,18.0,46,30.16,10.0,NNW,8.1,-,N/A,,Overcast,340,2013-03-17 18:51:00
3:51 PM,37.0,17.1,44,30.17,10.0,North,12.7,-,N/A,,Mostly Cloudy,350,2013-03-17 19:51:00
4:51 PM,37.0,18.0,46,30.18,10.0,North,8.1,-,N/A,,Partly Cloudy,360,2013-03-17 20:51:00
5:51 PM,37.0,17.1,44,30.20,10.0,NNW,8.1,-,N/A,,Clear,340,2013-03-17 21:51:00
6:51 PM,35.1,17.1,48,30.22,10.0,North,6.9,-,N/A,,Clear,350,2013-03-17 22:51:00
7:51 PM,33.1,18.0,54,30.25,10.0,North,5.8,-,N/A,,Clear,10,2013-03-17 23:51:00
8:51 PM,32.0,18.0,56,30.27,10.0,North,4.6,-,N/A,,Clear,350,2013-03-18 00:51:00
9:51 PM,30.0,19.0,64,30.30,10.0,North,3.5,-,N/A,,Clear,360,2013-03-18 01:51:00
10:51 PM,30.9,17.1,57,30.30,10.0,NNE,3.5,-,N/A,,Clear,20,2013-03-18 02:51:00
11:51 PM,28.9,16.0,58,30.31,10.0,NNE,3.5,-,N/A,,Clear,20,2013-03-18 03:51:00